User: anonymous   Login
Location: Unnamed
(47.6264°N, 122.3366°W)
Time: 12:59:31
(UTC-07:00)
Language:

UPPER FREE FLYER - Orbit

View from above orbital plane
View from above orbital plane
View from above satellite
View from above satellite

Ground track
Ground track

The orbit data is extracted from the following two-line orbital elements,

1 43763U 18099F   20275.59198343 -.00000363 +00000-0 -27391-4 0  9998
2 43763 097.6965 345.7370 0012589 188.5364 171.5646 14.95725642099829
Epoch (UTC): 01 October 2020 14:12:27
Eccentricity: 0.0012589
inclination: 97.6965°
perigee height: 571 km
apogee height: 589 km
right ascension of ascending node: 345.7370°
argument of perigee: 188.5364°
revolutions per day: 14.95725642
mean anomaly at epoch: 171.5646°
orbit number at epoch: 9982

The dashed part of the orbit path shows where the satellite is in the earth's shadow,  

DLR